Regional Weather Roundup
Issued by NWS Little Rock, AR

Home | Current Version | Previous Version | Graphics & Text | Print | Product List | Glossary Off
Versions: 1 2 3 4 5 6 7 8 9 10 11 12 13 14 15 16 17 18 19 20 21 22 23 24 25 26 27 28 29 30 31

000
ASUS44 KLZK 030405
RWRLZK

WEATHER ROUNDUP FOR ARKANSAS
NATIONAL WEATHER SERVICE LITTLE ROCK AR
1000 PM CST FRI DEC 02 2016

NOTE: "FAIR" INDICATES FEW OR NO CLOUDS BELOW 12,000 FEET WITH NO
SIGNIFICANT WEATHER AND/OR OBSTRUCTIONS TO VISIBILITY.

ARZ001-003-010-029-030500-
NORTHWEST ARKANSAS

CITY           SKY/WX    TMP DP  RH WIND       PRES   REMARKS
FAYETTEVILLE   CLOUDY    42  35  76 CALM      30.24R
FORT SMITH     CLOUDY    50  36  58 CALM      30.24R
HARRISON       CLOUDY    46  32  58 E5        30.27R
BENTONVILLE    CLOUDY    52  28  40 E5        30.26R
ROGERS         CLOUDY    50  31  48 E7        30.26R
SILOAM SPGS    CLOUDY    50  30  46 E6        30.24S
HIGHFILL       CLOUDY    50  33  52 E5        30.25R
$$

ARZ004-005-016-030500-
NORTH CENTRAL ARKANSAS

CITY           SKY/WX    TMP DP  RH WIND       PRES   REMARKS
BATESVILLE     CLOUDY    46  36  66 CALM      30.31R
FLIPPIN        CLOUDY    46  30  53 CALM      30.26R
MTN HOME       CLOUDY    47  32  56 SE6       30.28R
$$

ARZ040-041-030500-
WEST CENTRAL ARKANSAS

CITY           SKY/WX    TMP DP  RH WIND       PRES   REMARKS
MENA           PTCLDY    50  39  66 CALM      30.24S
MOUNT IDA      PTCLDY    47  39  74 CALM      30.21S
$$

ARZ009-017-025-026-028-030500-
NORTHEAST ARKANSAS

CITY           SKY/WX    TMP DP  RH WIND       PRES   REMARKS
CORNING        FAIR      43  37  81 NE6       30.32S
JONESBORO      PTCLDY    46  37  71 NE6       30.31S
NEWPORT        CLOUDY    46  41  82 E6        30.30
WALNUT RIDGE   CLOUDY    45  36  70 NE5       30.31R
BLYTHEVILLE    CLOUDY    43  37  79 NE5       30.31S
$$

ARZ022-023-033-042-044-030500-
CENTRAL ARKANSAS

CITY           SKY/WX    TMP DP  RH WIND       PRES   REMARKS
LITTLE ROCK    CLOUDY    49  40  71 NE3       30.27S
N LITTLE ROCK    N/A     50  36  58 E5        30.28S
SEARCY         CLOUDY    50  41  71 NE6       30.30R
HOT SPRINGS    CLOUDY    50  36  58 E6        30.25R
RUSSELLVILLE   CLOUDY    51  33  50 E5        30.24S
$$

ARZ036-030500-
EAST ARKANSAS

CITY           SKY/WX    TMP DP  RH WIND       PRES   REMARKS
WEST MEMPHIS   CLOUDY    47  38  71 NE3       30.29S
$$

ARZ050-053-066-070-073-030500-
SOUTHWEST ARKANSAS

CITY           SKY/WX    TMP DP  RH WIND       PRES   REMARKS
ARKADELPHIA    FAIR      48  44  86 N3        30.25R
CAMDEN         CLOUDY    52  32  46 E5        30.23F
TEXARKANA      CLOUDY    53  37  54 E3        30.22R
EL DORADO      PTCLDY    53  36  52 E6        30.22F
DE QUEEN       CLOUDY    52  39  61 NE5       30.21R
$$

ARZ056-057-069-030500-
SOUTHEAST ARKANSAS

CITY           SKY/WX    TMP DP  RH WIND       PRES   REMARKS
PINE BLUFF     CLOUDY    47  42  83 E5        30.26S
STUTTGART      CLOUDY    52  37  58 E5        30.28F
MONTICELLO     CLOUDY    49  40  71 E3        30.26S

$$






USA.gov is the U.S. government's official web portal to all federal, state and local government web resources and services.